User: anonymous   Login
Location: Unspecified
(0.0000°N, 0.0000°E)
Time: 06:50:22
(UTC+00:00)
Language:

SCD-1 - Orbit

View from above orbital plane
View from above orbital plane
View from above satellite
View from above satellite

Ground track
Ground track

The orbit data is extracted from the following two-line orbital elements,

1 22490U 93009B   17087.96048344 +.00000231 +00000-0 +13101-4 0  9995
2 22490 024.9700 077.8616 0042937 207.6669 178.8841 14.44478728273713
Epoch (UTC): 28 March 2017 23:03:05
Eccentricity: 0.0042937
inclination: 24.9700°
perigee height: 713 km
apogee height: 774 km
right ascension of ascending node: 77.8616°
argument of perigee: 207.6669°
revolutions per day: 14.44478728
mean anomaly at epoch: 178.8841°
orbit number at epoch: 27371

The dashed part of the orbit path shows where the satellite is in the earth's shadow,  

DLR